This demonstration page uses our WeatherBlox Daily Observations layout. Learn more.

Left ArrowRight Arrow

Hourly Observations for October 31, 2021

Temp ( °F °C ) Dew Point ( °F °C ) Humidity (%) Winds ( mph kmh ) Pressure ( in mb ) Visibility ( mi km ) Precip ( " mm )
12:53 am 00:53 Clear 55 12.8 51 10.6 87 87 SW 3 6 29.93 1013 10 16 N/A
1:53 am 01:53 Mostly Cloudy 53 11.7 50 10 89 89 SW 3 6 29.94 1014 10 16 N/A
2:53 am 02:53 Mostly Cloudy 53 11.7 50 10 89 89 W 3 6 29.95 1014 10 16 N/A
3:53 am 03:53 Mostly Cloudy 53 11.7 50 10 89 89 W 3 6 29.95 1014 10 16 N/A
4:53 am 04:53 Mostly Cloudy 52 11.1 49 9.4 89 89 N N/A 29.96 1015 10 16 N/A
5:45 am 05:45 Cloudy 52 11.1 50 10 93 93 N N/A 29.99 1015 10 16 N/A
5:53 am 05:53 Cloudy 53 11.7 50 10 89 89 NW 3 6 29.97 1015 10 16 N/A
6:53 am 06:53 Cloudy 51 10.6 49 9.4 92 92 W 3 6 29.98 1015 10 16 N/A
7:15 am 07:15 Cloudy 51 10.6 49 9.4 92 92 N N/A 29.99 1015 10 16 N/A
7:31 am 07:31 Cloudy 51 10.6 49 9.4 92 92 N N/A 29.99 1015 10 16 N/A
7:53 am 07:53 Cloudy 51 10.6 49 9.4 92 92 N N/A 29.98 1015 10 16 N/A
8:22 am 08:22 Cloudy 52 11.1 50 10 93 93 N 3 6 30.01 1016 10 16 N/A
8:51 am 08:51 Cloudy 54 12 50 10 88 88 N 3 6 30.00 1016 10 16 N/A
8:53 am 08:53 Cloudy 54 12.2 50 10 87 87 N 3 6 29.99 1016 10 16 N/A
9:09 am 09:09 Cloudy 56 13.3 51 10.6 84 84 N 3 6 30.00 1016 10 16 N/A
9:53 am 09:53 Cloudy 57 13.9 51 10.6 81 81 N N/A 29.99 1016 10 16 N/A
10:51 am 10:51 Cloudy 59 15 50 10 72 72 N N/A 30.00 1016 10 16 N/A
10:53 am 10:53 Cloudy 59 15 50 10 72 72 N N/A 29.99 1016 10 16 N/A
11:04 am 11:04 Cloudy 59 15 51 10.6 75 75 SSW 5 7 30.00 1016 10 16 N/A
11:22 am 11:22 Cloudy 59 15 50 10 72 72 SSW 3 6 30.00 1016 10 16 N/A
11:53 am 11:53 Cloudy 61 16.1 50 10 67 67 N N/A 29.99 1016 10 16 N/A
12:09 pm 12:09 Cloudy 60 15.6 48 8.9 65 65 SW 6 9 30.00 1016 10 16 N/A
12:53 pm 12:53 Cloudy 63 17.2 48 8.9 58 58 N 3 6 29.98 1015 10 16 N/A
1:53 pm 13:53 Partly Cloudy 63 17.2 49 9.4 60 60 SSE 5 7 29.96 1015 10 16 N/A
2:53 pm 14:53 Mostly Cloudy 63 17.2 49 9.4 60 60 SSW 7 11 29.94 1014 10 16 N/A
3:53 pm 15:53 Mostly Cloudy 64 17.8 49 9.4 58 58 S 6 9 29.94 1014 10 16 N/A
4:53 pm 16:53 Cloudy 64 17.8 49 9.4 58 58 SSW 7 11 29.95 1014 10 16 N/A
5:53 pm 17:53 Cloudy 63 17.2 47 8.3 56 56 SSW 8 13 29.95 1014 10 16 N/A
6:53 pm 18:53 Cloudy 61 16.1 48 8.9 63 63 S 3 6 29.96 1015 10 16 N/A
7:53 pm 19:53 Cloudy 61 16.1 49 9.4 65 65 S 5 7 29.97 1015 10 16 N/A
8:53 pm 20:53 Cloudy 59 15 50 10 72 72 SE 3 6 29.98 1015 10 16 N/A
9:53 pm 21:53 Cloudy 59 15 51 10.6 75 75 N N/A 29.99 1016 10 16 N/A
10:53 pm 22:53 Mostly Cloudy 59 15 51 10.6 75 75 N N/A 29.99 1016 10 16 N/A
11:53 pm 23:53 Cloudy 58 14.4 51 10.6 78 78 N N/A 29.99 1016 10 16 N/A

Powered by AerisWeather